Volver al catálogo

FENGYUN 1C DEB

ActivoSSO
NORAD 39543·DEBRIS·🇨🇳 China

Lanzado May 10, 1999 desde Taiyuan Satellite Launch Center

Loading…

Próximos Pases (próximas 24 horas)

TLE

EnvejeciendoSource: Space-Track

Época: Sep 7, 2026, 07:56 UTC

1 39543U 99025EWL 26250.33066966  .00000564  00000-0  45285-3 0  9995
2 39543  99.0206 269.3923 0337926 154.8728 206.9300 13.70718849528644

Sigue FENGYUN 1C DEB en tiempo real con AllMySat

Download on the App Store